Tracking 18840 objects as of 18-November-2017
HD Live streaming from Space Station
objects crossing your sky now

COSMOS 2269

Track COSMOS 2269 now!
10-day predictions
COSMOS 2269 is classified as:


NORAD ID: 23000
Int'l Code: 1994-011B
Perigee: 1,416.3 km
Apogee: 1,428.4 km
Inclination: 82.6 °
Period: 114.1 minutes
Semi major axis: 7793 km
RCS: 1.1181 m2 (large)
Launch date: February 12, 1994
Source: Commonwealth of Independent States (former USSR) (CIS)
Launch site: PLESETSK MISSILE AND SPACE COMPLEX (PKMTR)
aabbcc
Your satellite tracking list
Your tracking list is empty




NASA's NSSDC Master Catalog

Two Line Element Set (TLE):
1 23000U 94011B   17321.92438249 +.00000030 +00000-0 +10876-3 0  9993
2 23000 082.5658 161.6713 0007783 086.9443 032.6867 12.61876687094484
Source of the keplerian elements: AFSPC